Погода в Кирове

Россия / Орловская область     52°40′03″N   35°26′05″E
темп.,
°C
ветер,
м/с
пор.,
м/с
влажн.,
%
обл.,
%
осадки,
мм/ч
давл.,
гПа
погр.,
м
4 июля, пн
пн400:00+17сз34845 0.0 101758
03:00+16ссз348434 0.0 101750
06:00+18сз347899 0.0 101771
09:00+21сз347268 0.0 1017169
12:00+27сз345348 0.0 10161102
15:00+28зсз3447100 0.0 10152251
18:00+18в5794100 4.7 1017140
21:00+18зсз34902 5.6 101652
5 июля, вт
вт500:00+17с22855 0.0 101617
03:00+16ююз118824 0.0 101711
06:00+18ююз118498 0.0 101613
09:00+22ююз227176 0.0 1017329
12:00+26ююв1156100 0.0 10161095
15:00+27ююв2151100 0.0 10161803
18:00+27ю225425 0.0 10151737
21:00+20с228142 0.1 101613
6 июля, ср
ср600:00+20з117422 0.2 101611
03:00+18юз22830 0.3 101612
06:00+19зюз228199 0.0 101625
09:00+24ю22635 0.0 1015387
12:00+28ю345053 0.0 10151486
15:00+29юз344362 0.0 10142602
18:00+27ю36625 0.0 1013618
21:00+22ююв4107958 0.0 1013172
7 июля, чт
чт700:00+20ю3478100 0.0 101460
03:00+19ююз228537 0.6 101431
06:00+18зюз118948 0.1 101458
09:00+22сз217734 0.5 1014603
12:00+24ссз327248 0.4 1014831
15:00+25ссз226957 0.6 1014881
18:00+23юз367977 6.8 1014162
21:00+20ююв2387100 8.6 101532
8 июля, пт
пт800:00+17ююз2393100 4.3 101644
03:00+17юв1190100 5.6 101613
06:00+17ююв229098 0.0 101661
09:00+21ю127684 0.0 1016371
12:00+22ююз1272100 0.0 1016485
15:00+24сз226848 0.0 1016758
18:00+22ссз3481100 0.0 1016103
21:00+18ссз3594100 0.4 101682